FW2392 Weather Reports


time (UTC)temp
F
wind
direction
speed
knots
gust
knots
rain 1hr
in
rain 24hr
in
rain mn
in
humidity
%
barometer
mb
20260507130002 52 339 1.7 5.2 0.00 0.22 0.05 47 1012.4
20260507125402 52 5 1.7 5.2 0.00 0.23 0.05 46 1012.3
20260507124523 52 328 0.9 3.5 0.00 0.23 0.05 62 1012.2
20260507123602 51 332 1.7 6.1 0.00 0.24 0.05 61 1012.1
20260507122702 51 40 1.7 6.1 0.00 0.25 0.05 62 1012.1
20260507121802 51 357 1.7 4.3 0.00 0.26 0.05 63 1012.0
20260507120902 51 358 1.7 4.3 0.00 0.27 0.05 63 1012.1
20260507120024 50 21 1.7 4.3 0.00 0.28 0.05 62 1012.0
20260507115424 50 7 0.9 4.3 0.00 0.28 0.05 64 1011.9
20260507114503 50 5 0.0 4.3 0.00 0.28 0.05 66 1012.1
20260507113602 50 34 0.9 4.3 0.00 0.28 0.05 64 1012.0
20260507112702 50 71 0.0 1.7 0.00 0.28 0.05 64 1011.9
20260507111802 50 71 0.0 0.9 0.00 0.28 0.05 69 1011.9
20260507110902 50 10 0.0 2.6 0.00 0.28 0.05 64 1012.0
20260507110003 50 27 0.9 4.3 0.00 0.28 0.05 64 1011.8
20260507105402 50 44 0.9 4.3 0.00 0.28 0.05 64 1011.7
20260507104503 50 321 0.9 4.3 0.00 0.28 0.05 64 1011.5
20260507103602 50 323 0.9 2.6 0.00 0.28 0.05 67 1011.6
20260507102703 50 72 0.0 1.7 0.00 0.28 0.05 66 1011.4
20260507101802 50 73 0.0 2.6 0.00 0.28 0.05 66 1011.3
20260507100902 50 351 0.9 2.6 0.00 0.28 0.05 66 1011.1
20260507100002 50 18 0.0 5.2 0.00 0.28 0.05 65 1010.9
20260507095423 50 24 0.9 5.2 0.00 0.28 0.05 65 1010.8
20260507094503 50 353 1.7 7.0 0.00 0.28 0.05 65 1010.9
20260507093623 50 347 1.7 7.0 0.00 0.28 0.05 65 1010.8
20260507092702 50 4 2.6 7.0 0.00 0.28 0.05 66 1010.8
20260507091802 50 334 1.7 9.6 0.00 0.28 0.05 67 1011.0
20260507090902 50 341 2.6 9.6 0.00 0.28 0.05 66 1010.9
20260507090002 50 334 1.7 7.8 0.00 0.28 0.05 47 1010.7
20260507085403 50 340 2.6 7.0 0.00 0.28 0.05 62 1010.7
20260507084502 50 331 1.7 6.1 0.00 0.28 0.05 62 1010.7
20260507083623 50 333 1.7 4.3 0.00 0.28 0.05 62 1010.7
20260507082723 50 337 1.7 4.3 0.00 0.28 0.05 62 1010.6
20260507081802 50 359 1.7 4.3 0.00 0.28 0.05 62 1010.3
20260507080902 50 356 0.9 4.3 0.00 0.28 0.05 63 1010.1
20260507080002 50 359 0.9 3.5 0.00 0.28 0.05 63 1010.1
20260507075402 50 323 0.9 3.5 0.00 0.28 0.05 64 1010.2
20260507074502 50 345 0.9 5.2 0.00 0.28 0.05 65 1010.2
20260507073602 50 359 0.9 5.2 0.01 0.28 0.05 66 1010.0
20260507072723 50 353 1.7 5.2 0.03 0.28 0.05 66 1009.9
20260507071802 51 358 2.6 5.2 0.05 0.28 0.05 66 1010.2
20260507070923 51 6 1.7 8.7 0.05 0.28 0.05 66 1010.5
20260507070024 51 6 3.5 8.7 0.05 0.28 0.05 66 1010.7
20260507065403 51 2 2.6 8.7 0.05 0.28 0.05 66 1010.5
20260507064502 52 16 1.7 7.8 0.05 0.28 0.05 66 1010.3
20260507063602 52 358 0.9 3.5 0.04 0.27 0.04 65 1010.6
20260507062702 53 23 0.9 3.5 0.02 0.25 0.02 65 1010.7
20260507061802 53 351 0.9 5.2 0.00 0.23 0.00 65 1010.5
20260507060902 53 3 1.7 5.2 0.00 0.23 0.00 65 1010.6
20260507060002 53 20 1.7 5.2 0.00 0.23 0.00 65 1010.7
20260507055402 54 27 0.9 5.2 0.00 0.23 0.00 65 1010.6
20260507054503 54 7 0.9 5.2 0.00 0.23 0.00 65 1010.4
20260507053602 54 359 1.7 5.2 0.00 0.23 0.00 65 1010.5
20260507052723 54 360 1.7 5.2 0.00 0.23 0.00 64 1010.5
20260507051803 54 54 0.9 5.2 0.00 0.23 0.00 64 1010.3
20260507050902 54 360 1.7 8.7 0.00 0.23 0.00 64 1010.5
20260507050003 54 354 1.7 8.7 0.00 0.23 0.00 64 1010.7
20260507045402 54 348 2.6 8.7 0.00 0.23 0.00 64 1010.5
20260507044502 54 347 2.6 7.8 0.00 0.23 0.00 64 1010.7
20260507043624 54 4 1.7 7.8 0.00 0.23 0.00 64 1010.5
20260507042702 54 9 2.6 7.8 0.00 0.23 0.00 64 1010.3
20260507041802 55 12 1.7 7.8 0.00 0.23 0.00 64 1010.3
20260507040902 55 340 1.7 9.6 0.00 0.23 0.00 64 1010.0
20260507040003 55 351 2.6 9.6 0.01 0.23 0.00 64 1010.3
20260507035403 55 4 2.6 9.6 0.02 0.23 0.23 64 1009.9
20260507034503 55 341 3.5 9.6 0.02 0.23 0.23 64 1009.9
20260507033602 55 337 4.3 9.6 0.02 0.23 0.23 64 1009.8
20260507032702 56 7 3.5 9.6 0.02 0.23 0.23 64 1009.9
20260507031803 56 355 1.7 7.0 0.02 0.23 0.23 64 1009.9
20260507030903 57 354 2.6 7.8 0.02 0.23 0.23 64 1010.1
20260507030004 57 357 2.6 8.7 0.01 0.22 0.22 64 1010.0
20260507025424 57 348 3.5 8.7 0.00 0.21 0.21 63 1009.6
20260507024502 58 357 2.6 9.6 0.00 0.21 0.21 62 1009.7
20260507023623 58 348 3.5 9.6 0.00 0.21 0.21 62 1009.7
20260507022702 58 329 1.7 7.0 0.00 0.21 0.21 62 1009.8
20260507021802 58 315 0.9 7.0 0.01 0.21 0.21 63 1009.6
20260507020903 58 318 1.7 7.0 0.01 0.21 0.21 63 1009.4
20260507020002 58 286 0.9 3.5 0.01 0.21 0.21 63 1009.5
20260507015426 58 290 0.9 3.5 0.01 0.21 0.21 63 1009.6
20260507014524 58 268 1.7 6.1 0.01 0.21 0.21 63 1009.5
20260507013602 59 322 1.7 6.1 0.01 0.21 0.21 62 1009.5
20260507012702 60 308 1.7 7.8 0.01 0.21 0.21 62 1009.6
20260507011803 60 310 2.6 7.8 0.00 0.20 0.20 62 1009.7
20260507010923 60 316 2.6 7.8 0.01 0.20 0.20 62 1009.9
20260507010002 60 336 2.6 7.0 0.01 0.20 0.20 62 1009.8
20260507005403 60 325 2.6 7.0 0.01 0.20 0.20 62 1009.9
20260507004502 60 329 2.6 7.8 0.01 0.20 0.20 61 1009.7
20260507003602 61 334 2.6 7.8 0.01 0.20 0.20 61 1009.8
20260507002702 62 324 2.6 7.8 0.01 0.20 0.20 60 1009.4
20260507001823 63 285 3.5 7.8 0.05 0.20 0.20 48 1009.3
20260507000902 63 262 2.6 6.1 0.04 0.19 0.19 47 1009.1
20260507000003 64 273 1.7 3.5 0.04 0.19 0.19 49 1008.9
20260506235402 64 261 0.9 2.6 0.04 0.19 0.19 52 1008.9
20260506234504 64 261 0.9 3.5 0.05 0.19 0.19 59 1008.4
20260506233623 65 283 1.7 3.5 0.05 0.19 0.19 63 1008.2
20260506232702 66 315 1.7 3.5 0.05 0.19 0.19 65 1008.1
20260506231802 66 257 0.9 3.5 0.01 0.15 0.15 64 1008.3
20260506230902 66 252 0.9 4.3 0.01 0.15 0.15 64 1008.0
20260506230023 66 249 1.7 6.1 0.01 0.15 0.15 64 1007.9
20260506225403 67 256 2.6 6.1 0.01 0.15 0.15 64 1008.0
20260506224503 67 262 2.6 7.8 0.00 0.14 0.14 64 1008.0
20260506223602 67 238 3.5 7.8 0.00 0.14 0.14 63 1007.8
20260506222702 67 234 3.5 7.8 0.00 0.14 0.14 63 1007.9
20260506221802 67 231 1.7 5.2 0.00 0.14 0.14 64 1007.8
20260506220903 66 232 2.6 7.0 0.00 0.14 0.14 64 1007.9
20260506220002 66 233 3.5 8.7 0.00 0.14 0.14 64 1008.0
20260506215424 66 230 3.5 8.7 0.00 0.14 0.14 64 1008.0
20260506214525 65 232 3.5 8.7 0.00 0.14 0.14 64 1007.9
20260506213602 65 231 3.5 6.1 0.00 0.14 0.14 64 1007.9
20260506212723 65 228 3.5 5.2 0.00 0.14 0.14 64 1007.9
20260506211802 65 226 3.5 7.0 0.00 0.14 0.14 64 1007.6
20260506210902 65 222 3.5 7.0 0.00 0.14 0.14 64 1007.5
20260506210003 65 226 3.5 6.1 0.00 0.14 0.14 64 1007.3
20260506205402 65 231 3.5 6.1 0.00 0.14 0.14 64 1007.3
20260506204502 65 231 3.5 7.8 0.00 0.14 0.14 64 1007.3
20260506203602 65 225 3.5 7.8 0.00 0.14 0.14 64 1007.2
20260506202702 65 226 3.5 6.1 0.00 0.14 0.14 64 1007.5
20260506201802 66 237 2.6 6.1 0.00 0.14 0.14 64 1007.4
20260506200902 66 227 3.5 7.8 0.00 0.14 0.14 64 1007.3
20260506200003 65 247 3.5 7.8 0.00 0.14 0.14 64 1007.4
20260506195423 65 253 4.3 7.8 0.00 0.14 0.14 64 1007.6
20260506194502 65 250 4.3 7.8 0.00 0.14 0.14 64 1007.6
20260506193602 66 252 4.3 7.8 0.00 0.14 0.14 63 1007.5
20260506192702 66 227 4.3 7.8 0.00 0.14 0.14 63 1007.3
20260506191803 66 223 5.2 9.6 0.00 0.14 0.14 62 1007.3
20260506190923 66 235 4.3 9.6 0.00 0.14 0.14 62 1007.5
20260506190002 65 243 4.3 9.6 0.00 0.14 0.14 62 1007.6
20260506185404 65 241 5.2 9.6 0.00 0.14 0.14 61 1007.6
20260506184502 65 230 7.0 13.9 0.00 0.14 0.14 60 1007.6
20260506183603 64 229 7.0 13.9 0.00 0.14 0.14 60 1007.6
20260506182723 64 225 6.1 13.9 0.00 0.14 0.14 59 1007.8
20260506181802 64 219 6.1 11.3 0.00 0.14 0.14 58 1007.8
20260506180902 63 227 7.0 13.0 0.00 0.14 0.14 58 1007.9
20260506180003 63 222 7.8 13.0 0.00 0.14 0.14 57 1008.0
20260506175403 63 225 7.0 13.0 0.00 0.14 0.14 56 1008.0
20260506174503 63 223 7.0 13.0 0.00 0.14 0.14 55 1008.0
20260506173602 63 219 6.1 15.6 0.00 0.14 0.14 53 1008.0
20260506172724 62 228 7.8 16.5 0.00 0.14 0.14 52 1008.0
20260506171802 62 232 8.7 16.5 0.00 0.14 0.14 49 1008.0
20260506170902 62 225 7.0 13.0 0.00 0.14 0.14 46 1008.1
20260506170003 62 221 7.0 13.0 0.00 0.14 0.14 42 1008.1
20260506165402 61 223 7.8 16.5 0.00 0.14 0.14 40 1008.0
20260506164503 61 221 7.8 15.6 0.00 0.14 0.14 39 1008.0
20260506163602 60 224 7.8 15.6 0.00 0.14 0.14 39 1008.2
20260506162703 60 218 8.7 15.6 0.00 0.14 0.14 38 1008.0
20260506161802 60 223 7.8 13.0 0.00 0.14 0.14 40 1008.0
20260506160902 60 221 7.0 16.5 0.00 0.14 0.14 41 1008.2
20260506160003 60 223 9.6 18.2 0.00 0.14 0.14 42 1008.1
20260506155423 60 217 8.7 18.2 0.00 0.14 0.14 43 1008.2
20260506154502 60 218 8.7 18.2 0.01 0.14 0.14 44 1008.1
20260506152702 60 210 9.6 17.4 0.02 0.14 0.14 46 1007.8
20260506151802 59 209 8.7 16.5 0.02 0.14 0.14 46 1008.2
20260506150902 59 206 7.0 13.9 0.02 0.14 0.14 44 1007.9
20260506150004 59 210 7.8 14.8 0.03 0.14 0.14 42 1008.1
20260506145402 59 214 7.0 14.8 0.03 0.14 0.14 40 1008.6
20260506144502 59 217 7.8 14.8 0.02 0.13 0.13 38 1008.7
20260506143603 59 214 7.0 13.0 0.02 0.12 0.12 37 1008.8
20260506142723 59 210 7.8 16.5 0.03 0.12 0.12 37 1008.4
20260506141802 59 204 7.8 14.8 0.04 0.12 0.12 36 1008.2
20260506140902 59 205 7.0 14.8 0.05 0.12 0.12 36 1008.2
20260506140002 59 199 7.0 14.8 0.05 0.11 0.11 35 1008.3
20260506135402 59 203 7.0 15.6 0.06 0.11 0.11 35 1008.1
20260506134503 59 199 7.8 15.6 0.06 0.11 0.11 34 1008.2
20260506133602 59 208 7.8 14.8 0.06 0.10 0.10 34 1008.7
20260506132703 59 211 6.1 13.0 0.06 0.09 0.09 38 1008.9
20260506131823 59 208 6.1 11.3 0.06 0.08 0.08 44 1008.8
20260506130902 59 215 7.0 12.2 0.06 0.07 0.07 51 1008.8